User: anonymous   Login
Location: Killarney Provincial Park Observatory
(46.0124°N, 81.4000°W)
Time: 07:03:57
(UTC-04:00)
Language:

Iridium 22 - Orbit

View from above orbital plane
View from above orbital plane
View from above satellite
View from above satellite

Ground track
Ground track

The orbit data is extracted from the following two-line orbital elements,

1 24907U 97043E   18144.91575191 +.00000093 +00000-0 +25979-4 0  9999
2 24907 086.3950 113.3305 0002293 086.6225 273.5233 14.34248039086823
Epoch (UTC): 24 May 2018 21:58:40
Eccentricity: 0.0002293
inclination: 86.3950°
perigee height: 776 km
apogee height: 779 km
right ascension of ascending node: 113.3305°
argument of perigee: 86.6225°
revolutions per day: 14.34248039
mean anomaly at epoch: 273.5233°
orbit number at epoch: 8682

The dashed part of the orbit path shows where the satellite is in the earth's shadow,  

DLR